Zurück zum Katalog

INTELSAT 602

AktivKommunikationGEO
NORAD 20315·PAYLOAD· XX

Gestartet Oct 27, 1989 von Guiana Space Centre

Loading…

TLE

AktuellSource: Space-Track

Epoche: Sep 13, 2026, 21:07 UTC

1 20315U 89087A   26256.88024860  .00000043  00000-0  00000-0 0  9997
2 20315  14.3698   6.8868 0007033 223.2406 135.2068  0.99004686132195

Verfolge INTELSAT 602 in Echtzeit mit AllMySat

Download on the App Store